Weather in Sribne

Ukraine / Chernihiv Region     50°39′46″N   32°55′18″E
temp.,
°C
wind,
m/s
gust,
m/s
humid.,
%
clouds,
%
prec.,
mm/h
press.,
hPa
HPBL,
m
23 september, thu
thu2300:00+6wnw2495100 0.0 1014293
03:00+6wnw2595100 0.1 1014305
06:00+6wnw2496100 0.0 1014308
09:00+7nw3494100 0.2 1014333
12:00+7nw3490100 0.3 1014395
15:00+7wnw3486100 0.4 1014476
18:00+6w3489100 0.1 1014489
21:00+6wsw2490100 0.2 1013305
24 september, fri
fri2400:00+6ssw3594100 0.1 1012271
03:00+6ssw4894100 0.1 1010402
06:00+6s61391100 0.0 1007493
09:00+7s91594100 1.2 1003711
12:00+8ssw91795100 6.6 10011027
15:00+12sw7118338 7.8 10001016
18:00+10w51185100 1.1 1001638
21:00+9wsw51091100 1.4 1002664
25 september, sat
sat2500:00+9wsw51193100 0.4 1002656
03:00+9w5994100 3.5 1003635
06:00+8nnw498870 2.1 1005439
09:00+9wnw478869 2.1 1008592
12:00+9wnw5992100 0.2 1010743
15:00+12wnw6877100 0.3 10121012
18:00+10wnw5983100 0.1 1013494
21:00+10sw41094100 0.6 1013407
26 september, sun
sun2600:00+11wsw51192100 0.0 1013439
03:00+12w51296100 0.2 1012409
06:00+12wnw5129048 0.3 1013453
09:00+12nw7119078 0.4 1015537
12:00+11nw6986100 0.1 1017915
15:00+12nw6977100 0.1 10181182
18:00+12nnw61065100 0.0 1019881
21:00+11nnw51060100 0.0 1020636
27 september, mon
mon2700:00+8nw49765 0.0 1020183
03:00+7nnw49860 0.0 1021227
06:00+6nnw38955 0.0 1022178
09:00+8n468127 0.0 1023312
12:00+11n456785 0.0 1023590
15:00+14nne345567 0.0 10231460
18:00+12n2364100 0.1 102377
21:00+11ene3570100 0.1 1024128